Weather History for South Bend, IN

Change the Weather History Date:

Tuesday, February 5, 2013

  Actual Average Record
Temperature  
Mean Temperature 22 °F 26 °F  
Max Temperature 31 °F 33 °F 59 °F (1945)
Min Temperature 13 °F 19 °F -16 °F (1936)
Degree Days  
Heating Degree Days 43 40  
Month to date heating degree days 236 200  
Since 1 July heating degree days 3584 3848  
Cooling Degree Days 0 0  
Month to date cooling degree days 0 0  
Year to date cooling degree days 0 0  
Moisture  
Dew Point 21 °F    
Average Humidity 78    
Maximum Humidity 92    
Minimum Humidity 63    
Precipitation  
Precipitation 0.10 in 0.06 in 0.77 in (2008)
Month to date precipitation 0.60 0.31  
Year to date precipitation 5.60 2.60  
Snow  
Snow 1.10 in - - ()
Month to date snowfall 10.7  
Snow Depth 10.00 in    
Sea Level Pressure  
Sea Level Pressure 29.90 in    
Wind  
Wind Speed 8 mph (WSW)    
Max Wind Speed 18 mph    
Max Gust Speed 22 mph    
Visibility 5 miles    
Events Fog , Snow    
T = Trace of Precipitation, MM = Missing Value Source: NWS Daily Summary

Daily Weather History Graph

Daily Weather History Graph

Search for Another Location

Airport:

Trip Planner

Search our weather history database for the weather conditions in past years. The results will help you decide how hot, cold, wet, or windy it might be!

Date:

Astronomy

Feb. 05, 2013 Rise Set
Actual Time 7:52 AM EST 6:06 PM EST
Civil Twilight 7:23 AM EST 6:35 PM EST
Nautical Twilight 6:50 AM EST 7:08 PM EST
Astronomical Twilight 6:18 AM EST 7:40 PM EST
Moon 3:35 AM EST (2/5) 1:21 PM EST (2/5)
Length of Visible Light 11h 11m
Length of Day
10h 13m
Waning Crescent, 27% of the Moon is Illuminated
Feb 5
Waning Crescent
Feb 10
New
Feb 17
First Quarter
Feb 25
Full
Mar 4
Last Quarter

Hourly Weather History & Observations

Time (EST) Temp. Windchill Dew Point Humidity Pressure Visibility Wind Dir Wind Speed Gust Speed Precip Events Conditions
12:54 AM 21.0 °F - 15.1 °F 78% 29.96 in 10.0 mi Calm Calm - N/A   Scattered Clouds
1:54 AM 19.9 °F - 15.1 °F 81% 29.96 in 9.0 mi Calm Calm - N/A   Partly Cloudy
2:54 AM 19.9 °F - 16.0 °F 85% 29.95 in 8.0 mi Calm Calm - N/A   Overcast
3:54 AM 19.9 °F - 16.0 °F 85% 29.94 in 7.0 mi Calm Calm - N/A   Mostly Cloudy
4:54 AM 18.0 °F - 15.1 °F 88% 29.94 in 5.0 mi Calm Calm - N/A   Clear
5:54 AM 16.0 °F - 12.9 °F 88% 29.95 in 3.0 mi Calm Calm - N/A   Partly Cloudy
6:54 AM 14.0 °F 8.2 °F 10.9 °F 88% 29.94 in 3.0 mi South 3.5 mph - N/A   Clear
7:54 AM 16.0 °F 8.8 °F 12.9 °F 88% 29.95 in 3.0 mi SSW 4.6 mph - N/A   Clear
7:57 AM 17.6 °F 9.3 °F 14.0 °F 86% 29.91 in 2.5 mi SSW 5.8 mph - N/A   Partly Cloudy
8:45 AM 19.4 °F 14.3 °F 15.8 °F 86% 29.92 in 2.5 mi South 3.5 mph - N/A   Overcast
8:54 AM 19.0 °F 13.9 °F 17.1 °F 92% 29.95 in 2.5 mi South 3.5 mph - N/A   Overcast
9:05 AM 19.4 °F 14.3 °F 17.6 °F 93% 29.91 in 2.5 mi South 3.5 mph - N/A   Overcast
9:54 AM 21.0 °F 9.9 °F 19.0 °F 92% 29.93 in 2.5 mi SSW 10.4 mph - N/A   Overcast
10:01 AM 21.2 °F 10.1 °F 19.4 °F 93% 29.88 in 3.0 mi SSW 10.4 mph - N/A   Overcast
10:06 AM 21.2 °F 10.1 °F 19.4 °F 93% 29.88 in 3.0 mi South 10.4 mph - N/A   Overcast
10:21 AM 23.0 °F 10.6 °F 19.4 °F 86% 29.87 in 3.0 mi SSW 13.8 mph - N/A   Mostly Cloudy
10:42 AM 24.8 °F 14.0 °F 19.4 °F 80% 29.87 in 4.0 mi SSW 11.5 mph - N/A   Mostly Cloudy
10:54 AM 25.0 °F 13.1 °F 19.9 °F 81% 29.90 in 4.0 mi SSW 13.8 mph - N/A   Haze
11:54 AM 27.0 °F 16.7 °F 21.0 °F 78% 29.89 in 7.0 mi SSW 11.5 mph - N/A   Mostly Cloudy
12:54 PM 30.0 °F 18.3 °F 21.0 °F 69% 29.84 in 10.0 mi South 17.3 mph - N/A   Mostly Cloudy
1:54 PM 30.0 °F 19.5 °F 19.9 °F 66% 29.83 in 10.0 mi SW 13.8 mph - N/A   Overcast
2:39 PM 30.2 °F 19.8 °F 23.0 °F 75% 29.80 in 1.8 mi SW 13.8 mph 21.9 mph 0.00 in Snow Light Snow
2:54 PM 28.9 °F 17.7 °F 23.0 °F 78% 29.83 in 1.2 mi SW 15.0 mph 21.9 mph 0.00 in Snow Light Snow
3:16 PM 28.4 °F 19.1 °F 24.8 °F 86% 29.81 in 0.5 mi SW 10.4 mph - 0.00 in Fog , Snow Snow
3:28 PM 28.4 °F 21.2 °F 26.6 °F 93% 29.81 in 0.5 mi SW 6.9 mph - 0.02 in Fog , Snow Snow
3:54 PM 28.9 °F 22.8 °F 26.1 °F 89% 29.85 in 0.5 mi WSW 5.8 mph - 0.04 in Fog , Snow Snow
3:57 PM 28.4 °F 21.2 °F 26.6 °F 93% 29.82 in 0.2 mi WSW 6.9 mph - 0.01 in Fog , Snow Heavy Snow
4:09 PM 28.4 °F 21.2 °F 26.6 °F 93% 29.82 in 0.5 mi SW 6.9 mph - 0.02 in Fog , Snow Snow
4:22 PM 28.4 °F 21.2 °F 26.6 °F 93% 29.82 in 0.5 mi WSW 6.9 mph - 0.03 in Fog , Snow Snow
4:54 PM 28.9 °F 21.1 °F 27.0 °F 92% 29.87 in 0.5 mi WSW 8.1 mph - 0.05 in Fog , Snow Snow
4:57 PM 28.4 °F 20.4 °F 26.6 °F 93% 29.83 in 0.5 mi WSW 8.1 mph - 0.00 in Fog , Snow Snow
5:49 PM 30.2 °F 21.3 °F 26.6 °F 86% 29.86 in 2.0 mi West 10.4 mph - 0.01 in Snow Light Snow
5:54 PM 30.0 °F 21.7 °F 26.1 °F 85% 29.90 in 2.5 mi WNW 9.2 mph - 0.01 in Snow Light Snow
6:16 PM 28.4 °F 19.1 °F 24.8 °F 86% 29.86 in 4.0 mi West 10.4 mph - 0.00 in   Overcast
6:40 PM 28.4 °F 18.0 °F 24.8 °F 86% 29.87 in 7.0 mi West 12.7 mph - 0.00 in   Overcast
6:54 PM 28.9 °F 21.1 °F 25.0 °F 85% 29.91 in 7.0 mi West 8.1 mph - 0.00 in   Overcast
6:57 PM 28.4 °F 20.4 °F 24.8 °F 86% 29.88 in 7.0 mi West 8.1 mph - N/A   Overcast
7:05 PM 28.4 °F 19.7 °F 24.8 °F 86% 29.88 in 7.0 mi West 9.2 mph - N/A   Overcast
7:12 PM 28.4 °F 19.1 °F 24.8 °F 86% 29.88 in 7.0 mi West 10.4 mph - N/A   Overcast
7:54 PM 30.0 °F 21.1 °F 25.0 °F 82% 29.94 in 6.0 mi WNW 10.4 mph - N/A   Haze
8:54 PM 30.0 °F 19.5 °F 25.0 °F 82% 29.97 in 5.0 mi WNW 13.8 mph 21.9 mph N/A   Haze
9:54 PM 28.9 °F 19.2 °F 26.1 °F 89% 30.00 in 4.0 mi NW 11.5 mph - N/A   Overcast
10:11 PM 28.4 °F 19.1 °F 24.8 °F 86% 29.97 in 7.0 mi WNW 10.4 mph - N/A   Overcast
10:54 PM 30.0 °F 21.7 °F 23.0 °F 75% 30.02 in 10.0 mi NW 9.2 mph - N/A   Overcast
11:54 PM 28.9 °F 19.8 °F 21.9 °F 75% 30.04 in 10.0 mi NW 10.4 mph - N/A   Overcast